FW1036 Weather Reports


Display with metric or nautical units.
time (UTC)temp
F
wind
direction
speed
MPH
gust
MPH
rain 1hr
in
rain 24hr
in
rain mn
in
humidity
%
barometer
mb
20260903223052 67 12 4.0 9.0 0.00 0.48 0.35 92 1012.3
20260903221545 67 28 5.0 13.0 0.00 0.48 0.35 92 1011.9
20260903220059 68 26 11.0 13.0 0.00 0.48 0.35 92 1011.7
20260903214543 68 50 5.0 9.0 0.00 0.53 0.35 92 1010.6
20260903213047 68 144 4.0 8.0 0.01 0.53 0.35 92 1010.4
20260903211542 68 109 5.0 10.0 0.02 0.53 0.35 92 1010.9
20260903210049 68 106 3.0 7.0 0.03 0.53 0.35 92 1012.2
20260903204541 68 34 3.0 6.0 0.08 0.76 0.35 92 1013.3
20260903203040 68 360 4.0 7.0 0.11 0.75 0.34 92 1013.3
20260903201540 68 111 4.0 6.0 0.28 0.74 0.33 92 1012.6
20260903200039 68 355 0.0 1.0 0.30 0.73 0.32 91 1013.4
20260903194547 68 5 0.0 4.0 0.27 0.68 0.27 91 1013.5
20260903193045 68 23 2.0 11.0 0.23 0.64 0.23 89 1013.2
20260903191534 69 5 3.0 6.0 0.04 0.45 0.04 90 1013.3
20260903190033 70 38 5.0 14.0 0.02 0.43 0.02 89 1012.5
20260903184532 71 29 11.0 14.0 0.00 0.41 0.00 88 1012.0
20260903183032 72 44 6.0 10.0 0.00 0.41 0.00 87 1012.0
20260903181532 73 55 6.0 11.0 0.00 0.41 0.00 86 1011.6
20260903180029 74 96 5.0 11.0 0.00 0.41 0.00 85 1011.6
20260903174529 75 65 5.0 10.0 0.00 0.41 0.00 83 1012.0
20260903173028 76 84 2.0 8.0 0.00 0.41 0.00 82 1012.2
20260903171525 77 132 1.0 6.0 0.00 0.41 0.00 79 1012.3
20260903170028 78 117 4.0 8.0 0.00 0.41 0.00 79 1012.5
20260903164522 76 90 4.0 9.0 0.00 0.41 0.00 81 1012.5
20260903163021 77 138 5.0 7.0 0.00 0.41 0.00 78 1012.6
20260903161519 77 143 1.0 6.0 0.00 0.41 0.00 78 1012.9
20260903160019 76 132 3.0 7.0 0.00 0.41 0.00 76 1012.8
20260903154515 76 100 2.0 5.0 0.00 0.41 0.00 76 1012.7
20260903153010 76 114 2.0 9.0 0.00 0.41 0.00 75 1012.6
20260903151505 75 58 5.0 9.0 0.00 0.41 0.00 77 1012.3
20260903150004 75 45 4.0 8.0 0.00 0.41 0.00 80 1012.3
20260903144557 74 80 5.0 9.0 0.00 0.41 0.00 82 1012.0
20260903143102 73 45 5.0 9.0 0.00 0.41 0.00 89 1012.1
20260903141550 72 30 4.0 9.0 0.00 0.41 0.00 93 1012.0
20260903140046 70 74 4.0 10.0 0.00 0.41 0.00 94 1012.0
20260903134551 70 85 3.0 5.0 0.00 0.41 0.00 95 1012.1
20260903133043 69 92 2.0 6.0 0.00 0.41 0.00 95 1012.2
20260903131549 69 80 2.0 4.0 0.00 0.41 0.00 94 1012.3
20260903130041 68 55 1.0 3.0 0.00 0.41 0.00 95 1012.5
20260903124539 68 55 2.0 5.0 0.00 0.41 0.00 94 1012.4
20260903123037 67 23 3.0 4.0 0.00 0.41 0.00 94 1012.4
20260903121536 67 27 4.0 6.0 0.00 0.41 0.00 94 1012.4
20260903120036 66 32 2.0 3.0 0.00 0.41 0.00 94 1012.2
20260903114533 66 32 2.0 4.0 0.00 0.41 0.00 94 1012.1
20260903113030 66 32 2.0 3.0 0.00 0.41 0.00 94 1012.0
20260903111526 65 32 2.0 3.0 0.00 0.41 0.00 94 1011.8
20260903110024 66 32 1.0 3.0 0.00 0.41 0.00 94 1011.6
20260903104524 66 32 2.0 5.0 0.00 0.41 0.00 94 1011.5
20260903103023 66 33 4.0 6.0 0.00 0.41 0.00 94 1011.7
20260903101521 66 5 1.0 2.0 0.00 0.41 0.00 94 1011.5
20260903100019 66 5 1.0 3.0 0.00 0.41 0.00 94 1011.4
20260903094518 67 5 1.0 5.0 0.00 0.41 0.00 94 1011.3
20260903093025 68 360 4.0 6.0 0.00 0.41 0.00 94 1011.3
20260903091517 66 19 1.0 2.0 0.00 0.41 0.00 94 1011.1
20260903090015 66 19 1.0 3.0 0.00 0.41 0.00 94 1010.9
20260903084516 66 30 0.0 1.0 0.00 0.41 0.00 94 1010.9
20260903083012 67 30 1.0 3.0 0.00 0.41 0.00 93 1011.1
20260903081529 67 30 1.0 3.0 0.00 0.41 0.00 93 1011.0
20260903080009 68 323 0.0 1.0 0.00 0.41 0.00 94 1011.1
20260903074509 68 323 0.0 1.0 0.00 0.41 0.00 93 1011.0
20260903073009 68 14 0.0 2.0 0.00 0.41 0.00 93 1010.9
20260903071512 68 14 0.0 1.0 0.00 0.41 0.00 93 1010.8
20260903070006 68 14 0.0 1.0 0.00 0.41 0.00 93 1010.8
20260903064505 68 14 0.0 2.0 0.00 0.41 0.00 93 1010.8
20260903063004 68 14 0.0 0.0 0.00 0.41 0.00 93 1011.0
20260903061504 68 14 0.0 0.0 0.00 0.41 0.00 93 1011.3
20260903054558 68 256 0.0 0.0 0.00 0.41 0.00 93 1011.3
20260903053058 68 256 0.0 0.0 0.00 0.41 0.00 93 1011.3
20260903051555 69 256 0.0 0.0 0.00 0.41 0.00 93 1010.9
20260903050051 69 256 0.0 3.0 0.00 0.41 0.00 93 1010.7
20260903044553 69 236 0.0 0.0 0.00 0.41 0.00 93 1010.3
20260903043049 69 236 0.0 0.0 0.00 0.41 0.00 93 1010.3
20260903041547 69 231 0.0 3.0 0.00 0.41 0.00 93 1010.4
20260903040044 69 245 1.0 3.0 0.00 0.41 0.00 93 1010.4
20260903034542 69 274 0.0 0.0 0.00 0.41 0.41 93 1010.1
20260903033042 69 275 0.0 0.0 0.00 0.41 0.41 93 1009.9
20260903031543 69 274 0.0 0.0 0.00 0.41 0.41 93 1009.7
20260903030041 69 274 1.0 4.0 0.00 0.41 0.41 93 1009.6
20260903024541 69 273 0.0 0.0 0.00 0.41 0.41 92 1009.9
20260903023056 69 273 0.0 0.0 0.00 0.41 0.41 92 1010.4
20260903021545 69 273 0.0 0.0 0.00 0.41 0.41 92 1010.4
20260903020037 69 273 0.0 0.0 0.00 0.41 0.41 92 1010.4
20260903014536 69 273 0.0 0.0 0.00 0.41 0.41 92 1010.2
20260903013039 69 273 0.0 0.0 0.01 0.41 0.41 92 1010.3
20260903011535 70 273 0.0 0.0 0.01 0.41 0.41 92 1010.3
20260903010034 70 273 0.0 2.0 0.01 0.41 0.41 92 1010.2
20260903004534 70 273 0.0 2.0 0.06 0.41 0.41 92 1010.0
20260903003034 70 269 1.0 2.0 0.12 0.40 0.40 91 1010.0
20260903001534 71 213 0.0 6.0 0.12 0.40 0.40 91 1009.7
20260903000031 71 278 0.0 3.0 0.12 0.40 0.40 91 1009.8
20260902234529 72 186 4.0 7.0 0.05 0.33 0.33 91 1010.5
20260902233026 72 223 0.0 2.0 0.00 0.28 0.28 91 1009.6
20260902231530 72 223 0.0 2.0 0.00 0.28 0.28 90 1009.6
20260902230016 71 225 1.0 5.0 0.00 0.28 0.28 91 1010.4
20260902224514 71 165 3.0 8.0 0.01 0.28 0.28 91 1010.2